Retour au catalogue

FENGYUN 1C DEB

ActifSSO
NORAD 31155·DEBRIS·🇨🇳 China

Lancé May 10, 1999 depuis Taiyuan Satellite Launch Center

Loading…

Prochains Passages (prochaines 24 heures)

TLE

FraisSource: Space-Track

Époque: Sep 11, 2026, 16:50 UTC

1 31155U 99025BHH 26254.70191701  .00001479  00000-0  84381-3 0  9993
2 31155  99.0256 329.1949 0086666 318.1009  41.3549 14.09413210994316

Suivez FENGYUN 1C DEB en temps réel avec AllMySat

Download on the App Store